STARLINK-1415 (45691 NORAD) Tracking and Keplerian Element Data

This shows tracking and keplerian element data for the satellite.

Feedback or suggestion? Click here.




ElementValue
Catalog45691
NameSTARLINK-1415
Epoch Orbit1113
Epoch Day218.91667824
Epoch Year2020
RAAN223.0061
Inclination52.9976
Eccentricity0.000144
Argument of Perigee66.8134
Mean Anonmoly157.1536
Mean Motion15.24457127
Decay Rate-0.01061207
L11 45691U 20035AL 20218.91667824 -.01061207 00000-0 -46555-1 0 9996
L22 45691 52.9976 223.0061 0001440 66.8134 157.1536 15.24457127 11138

Live tracking and technical data element details for STARLINK-1415 (NORAD 45691). STARLINK-1415 can be tracked NOW for your location showing map with azimuth and elevation plus other details from your city location.

Track the satellite on the map from your city or location and see movement details for azimuth, elevation, latitude, longitude, range, height, and movement on the map or in text.







IsCatalogInMostPopularTable: catalog: 45691, numindb: 9
Update: records affected: 1



GetName: 45691 STARLINK-1415

Hit Count: updated at: Sat, 08 Aug 2020 00:12:00 GMT